Time,TemperatureF,DewpointF,PressureIn,WindDirection,WindDirectionDegrees,WindSpeedMPH,WindSpeedGustMPH,Humidity,HourlyPrecipIn,Conditions,Clouds,dailyrainin,SoftwareType,DateUTC
2013-04-07 00:02:00,63.6,56.6,29.89,South,176,10.0,15.0,78,0.00,,---,0.00,VWS V14.00,2013-04-07 06:02:00,
2013-04-07 00:07:00,63.5,56.9,29.89,SSE,161,12.0,17.0,79,0.00,,---,0.00,VWS V14.00,2013-04-07 06:07:00,
2013-04-07 00:12:00,63.4,56.8,29.89,SSE,160,9.0,17.0,79,0.00,,---,0.00,VWS V14.00,2013-04-07 06:12:00,
2013-04-07 00:17:00,63.3,56.7,29.89,SSE,148,13.0,17.0,79,0.00,,---,0.00,VWS V14.00,2013-04-07 06:17:00,
2013-04-07 00:22:00,63.2,56.6,29.89,South,169,8.0,17.0,79,0.00,,---,0.00,VWS V14.00,2013-04-07 06:22:00,
2013-04-07 00:27:00,63.0,56.7,29.89,SSE,155,17.0,17.0,80,0.00,,---,0.00,VWS V14.00,2013-04-07 06:27:00,
2013-04-07 00:32:00,62.9,56.6,29.89,SSE,162,13.0,14.0,80,0.00,,---,0.00,VWS V14.00,2013-04-07 06:32:00,
2013-04-07 00:37:00,62.9,56.6,29.89,South,182,11.0,18.0,80,0.00,,---,0.00,VWS V14.00,2013-04-07 06:37:00,
2013-04-07 00:42:00,62.7,56.5,29.88,SSE,160,11.0,18.0,80,0.00,,---,0.00,VWS V14.00,2013-04-07 06:42:00,
2013-04-07 00:47:00,62.4,56.5,29.89,SSE,159,11.0,18.0,81,0.00,,---,0.00,VWS V14.00,2013-04-07 06:47:00,
2013-04-07 00:52:00,62.1,56.2,29.89,SSE,163,10.0,18.0,81,0.00,,---,0.00,VWS V14.00,2013-04-07 06:52:00,
2013-04-07 00:57:00,61.8,56.2,29.89,SSE,163,9.0,18.0,82,0.00,,---,0.00,VWS V14.00,2013-04-07 06:57:00,
2013-04-07 01:02:00,61.6,56.1,29.89,SSE,154,8.0,12.0,82,0.00,,---,0.00,VWS V14.00,2013-04-07 07:02:00,
2013-04-07 01:07:00,61.3,56.1,29.89,SSE,152,11.0,13.0,83,0.00,,---,0.00,VWS V14.00,2013-04-07 07:07:00,
2013-04-07 01:12:00,61.1,55.9,29.89,SSE,159,13.0,14.0,83,0.00,,---,0.00,VWS V14.00,2013-04-07 07:12:00,
2013-04-07 01:17:00,60.8,55.9,29.89,South,178,7.0,14.0,84,0.00,,---,0.00,VWS V14.00,2013-04-07 07:17:00,
2013-04-07 01:22:00,60.8,55.9,29.89,SSE,159,5.0,14.0,84,0.00,,---,0.00,VWS V14.00,2013-04-07 07:22:00,
2013-04-07 01:27:00,60.7,55.8,29.89,SSE,155,6.0,14.0,84,0.00,,---,0.00,VWS V14.00,2013-04-07 07:27:00,
2013-04-07 01:32:00,60.6,55.8,29.89,SSE,156,7.0,13.0,84,0.00,,---,0.00,VWS V14.00,2013-04-07 07:32:00,
2013-04-07 01:37:00,60.5,56.0,29.89,SSE,161,9.0,13.0,85,0.00,,---,0.00,VWS V14.00,2013-04-07 07:37:00,
2013-04-07 01:42:00,60.5,56.0,29.89,SSE,148,13.0,14.0,85,0.00,,---,0.00,VWS V14.00,2013-04-07 07:42:00,
2013-04-07 01:47:00,60.5,56.0,29.88,SSE,157,11.0,15.0,85,0.00,,---,0.00,VWS V14.00,2013-04-07 07:47:00,
2013-04-07 01:52:00,60.3,55.8,29.88,SSE,148,10.0,15.0,85,0.00,,---,0.00,VWS V14.00,2013-04-07 07:52:00,
2013-04-07 01:57:00,60.2,55.7,29.88,SSE,165,15.0,16.0,85,0.00,,---,0.00,VWS V14.00,2013-04-07 07:57:00,
2013-04-07 02:02:00,60.2,55.7,29.88,South,177,12.0,14.0,85,0.00,,---,0.00,VWS V14.00,2013-04-07 08:02:00,
2013-04-07 02:07:00,60.1,55.6,29.88,SSE,161,13.0,15.0,85,0.00,,---,0.00,VWS V14.00,2013-04-07 08:07:00,
2013-04-07 02:12:00,60.0,55.5,29.88,SSE,157,12.0,15.0,85,0.00,,---,0.00,VWS V14.00,2013-04-07 08:12:00,
2013-04-07 02:17:00,60.0,55.8,29.88,SE,144,12.0,17.0,86,0.00,,---,0.00,VWS V14.00,2013-04-07 08:17:00,
2013-04-07 02:22:00,59.9,55.7,29.87,SSE,158,12.0,17.0,86,0.00,,---,0.00,VWS V14.00,2013-04-07 08:22:00,
2013-04-07 02:27:00,59.8,55.6,29.87,SSE,151,6.0,17.0,86,0.00,,---,0.00,VWS V14.00,2013-04-07 08:27:00,
2013-04-07 02:32:00,59.6,55.4,29.87,South,171,6.0,14.0,86,0.00,,---,0.00,VWS V14.00,2013-04-07 08:32:00,
2013-04-07 02:37:00,59.5,55.3,29.88,SSE,161,6.0,14.0,86,0.00,,---,0.00,VWS V14.00,2013-04-07 08:37:00,
2013-04-07 02:42:00,59.5,55.3,29.88,SSE,165,8.0,14.0,86,0.00,,---,0.00,VWS V14.00,2013-04-07 08:42:00,
2013-04-07 02:47:00,59.5,55.6,29.88,SSE,167,8.0,14.0,87,0.00,,---,0.00,VWS V14.00,2013-04-07 08:47:00,
2013-04-07 02:52:00,59.5,55.6,29.88,SSE,163,12.0,15.0,87,0.00,,---,0.00,VWS V14.00,2013-04-07 08:52:00,
2013-04-07 02:57:00,59.6,55.7,29.88,South,172,5.0,16.0,87,0.00,,---,0.00,VWS V14.00,2013-04-07 08:57:00,
2013-04-07 03:02:00,59.6,55.7,29.88,South,178,15.0,15.0,87,0.00,,---,0.00,VWS V14.00,2013-04-07 09:02:00,
2013-04-07 03:07:00,59.7,55.8,29.88,South,182,9.0,15.0,87,0.00,,---,0.00,VWS V14.00,2013-04-07 09:07:00,
2013-04-07 03:12:00,59.7,55.8,29.88,South,169,10.0,15.0,87,0.00,,---,0.00,VWS V14.00,2013-04-07 09:12:00,
2013-04-07 03:17:00,59.8,55.9,29.89,South,172,6.0,15.0,87,0.00,,---,0.00,VWS V14.00,2013-04-07 09:17:00,
2013-04-07 03:22:00,59.8,55.9,29.88,South,172,13.0,15.0,87,0.00,,---,0.00,VWS V14.00,2013-04-07 09:22:00,
2013-04-07 03:27:00,59.9,56.0,29.88,SSE,160,12.0,15.0,87,0.00,,---,0.00,VWS V14.00,2013-04-07 09:27:00,
2013-04-07 03:32:00,59.9,56.0,29.88,SSE,168,6.0,9.0,87,0.00,,---,0.00,VWS V14.00,2013-04-07 09:32:00,
2013-04-07 03:37:00,59.9,56.0,29.89,South,181,10.0,13.0,87,0.00,,---,0.00,VWS V14.00,2013-04-07 09:37:00,
2013-04-07 03:42:00,60.0,56.1,29.89,South,180,12.0,15.0,87,0.00,,---,0.00,VWS V14.00,2013-04-07 09:42:00,
2013-04-07 03:47:00,60.0,56.1,29.88,SSE,149,8.0,15.0,87,0.00,,---,0.00,VWS V14.00,2013-04-07 09:47:00,
2013-04-07 03:52:00,60.0,56.1,29.88,SSE,163,12.0,15.0,87,0.00,,---,0.00,VWS V14.00,2013-04-07 09:52:00,
2013-04-07 03:57:00,60.0,56.1,29.88,South,178,11.0,18.0,87,0.00,,---,0.00,VWS V14.00,2013-04-07 09:57:00,
2013-04-07 04:02:00,60.0,56.1,29.88,South,182,7.0,12.0,87,0.00,,---,0.00,VWS V14.00,2013-04-07 10:02:00,
2013-04-07 04:07:00,60.1,56.2,29.88,South,191,12.0,15.0,87,0.00,,---,0.00,VWS V14.00,2013-04-07 10:07:00,
2013-04-07 04:12:00,60.1,56.2,29.88,South,180,10.0,15.0,87,0.00,,---,0.00,VWS V14.00,2013-04-07 10:12:00,
2013-04-07 04:18:00,60.0,56.1,29.89,South,175,6.0,15.0,87,0.00,,---,0.00,VWS V14.00,2013-04-07 10:18:00,
2013-04-07 04:23:00,60.0,56.1,29.88,South,179,7.0,15.0,87,0.00,,---,0.00,VWS V14.00,2013-04-07 10:23:00,
2013-04-07 04:28:00,60.0,56.1,29.89,SSE,163,7.0,15.0,87,0.00,,---,0.00,VWS V14.00,2013-04-07 10:28:00,
2013-04-07 04:32:00,60.1,56.2,29.89,SSE,162,7.0,14.0,87,0.00,,---,0.00,VWS V14.00,2013-04-07 10:32:00,
2013-04-07 04:37:00,60.1,56.2,29.89,SSE,163,9.0,16.0,87,0.00,,---,0.00,VWS V14.00,2013-04-07 10:37:00,
2013-04-07 04:42:00,60.1,56.2,29.89,South,171,7.0,16.0,87,0.00,,---,0.00,VWS V14.00,2013-04-07 10:42:00,
2013-04-07 04:47:00,60.1,56.2,29.88,South,186,10.0,16.0,87,0.00,,---,0.00,VWS V14.00,2013-04-07 10:47:00,
2013-04-07 04:52:00,60.0,56.1,29.89,South,175,11.0,16.0,87,0.00,,---,0.00,VWS V14.00,2013-04-07 10:52:00,
2013-04-07 04:57:00,60.0,56.4,29.89,South,178,10.0,16.0,88,0.00,,---,0.00,VWS V14.00,2013-04-07 10:57:00,
2013-04-07 05:02:00,60.0,56.4,29.88,SSE,163,11.0,14.0,88,0.00,,---,0.00,VWS V14.00,2013-04-07 11:02:00,
2013-04-07 05:08:00,60.0,56.4,29.88,South,173,10.0,14.0,88,0.00,,---,0.00,VWS V14.00,2013-04-07 11:08:00,
2013-04-07 05:12:00,60.0,56.4,29.89,SSE,157,10.0,14.0,88,0.00,,---,0.00,VWS V14.00,2013-04-07 11:12:00,
2013-04-07 05:17:00,60.0,56.4,29.89,SSE,164,8.0,14.0,88,0.00,,---,0.00,VWS V14.00,2013-04-07 11:17:00,
2013-04-07 05:22:00,60.0,56.4,29.89,South,179,13.0,16.0,88,0.00,,---,0.00,VWS V14.00,2013-04-07 11:22:00,
2013-04-07 05:27:00,60.0,56.4,29.89,South,174,11.0,16.0,88,0.00,,---,0.00,VWS V14.00,2013-04-07 11:27:00,
2013-04-07 05:32:00,60.0,56.4,29.89,South,173,10.0,14.0,88,0.00,,---,0.00,VWS V14.00,2013-04-07 11:32:00,
2013-04-07 05:37:00,60.1,56.5,29.89,South,170,12.0,14.0,88,0.00,,---,0.00,VWS V14.00,2013-04-07 11:37:00,
2013-04-07 05:42:00,60.0,56.4,29.89,South,177,6.0,14.0,88,0.00,,---,0.00,VWS V14.00,2013-04-07 11:42:00,
2013-04-07 05:47:00,60.0,56.4,29.89,South,169,10.0,15.0,88,0.00,,---,0.00,VWS V14.00,2013-04-07 11:47:00,
2013-04-07 05:53:00,60.0,56.4,29.89,South,172,9.0,15.0,88,0.00,,---,0.00,VWS V14.00,2013-04-07 11:53:00,
2013-04-07 05:58:00,60.0,56.4,29.90,SSE,157,9.0,15.0,88,0.00,,---,0.00,VWS V14.00,2013-04-07 11:58:00,
2013-04-07 06:03:00,60.1,56.5,29.90,SSE,163,10.0,13.0,88,0.00,,---,0.00,VWS V14.00,2013-04-07 12:03:00,
2013-04-07 06:08:00,60.1,56.5,29.90,SSE,154,10.0,15.0,88,0.00,,---,0.00,VWS V14.00,2013-04-07 12:08:00,
2013-04-07 06:13:00,60.1,56.5,29.90,South,177,9.0,16.0,88,0.00,,---,0.00,VWS V14.00,2013-04-07 12:13:00,
2013-04-07 06:18:00,60.1,56.5,29.90,South,169,10.0,16.0,88,0.00,,---,0.00,VWS V14.00,2013-04-07 12:18:00,
2013-04-07 06:23:00,60.1,56.8,29.90,SSE,167,10.0,16.0,89,0.00,,---,0.00,VWS V14.00,2013-04-07 12:23:00,
2013-04-07 06:28:00,60.1,56.8,29.90,SSE,165,7.0,16.0,89,0.00,,---,0.00,VWS V14.00,2013-04-07 12:28:00,
2013-04-07 06:33:00,60.2,57.0,29.90,South,170,11.0,14.0,89,0.00,,---,0.00,VWS V14.00,2013-04-07 12:33:00,
2013-04-07 06:38:00,60.2,57.0,29.90,South,179,9.0,16.0,89,0.00,,---,0.00,VWS V14.00,2013-04-07 12:38:00,
2013-04-07 06:43:00,60.3,57.0,29.90,SSE,150,9.0,16.0,89,0.00,,---,0.00,VWS V14.00,2013-04-07 12:43:00,
2013-04-07 06:48:00,60.3,57.0,29.90,SE,140,11.0,16.0,89,0.00,,---,0.00,VWS V14.00,2013-04-07 12:48:00,
2013-04-07 06:53:00,60.3,57.0,29.91,South,188,14.0,16.0,89,0.00,,---,0.00,VWS V14.00,2013-04-07 12:53:00,
2013-04-07 06:58:00,60.4,57.2,29.91,South,169,13.0,16.0,89,0.00,,---,0.00,VWS V14.00,2013-04-07 12:58:00,
2013-04-07 07:03:00,60.4,57.2,29.91,South,169,13.0,13.0,89,0.00,,---,0.00,VWS V14.00,2013-04-07 13:03:00,
2013-04-07 07:08:00,60.5,56.9,29.91,SE,141,11.0,16.0,88,0.00,,---,0.00,VWS V14.00,2013-04-07 13:08:00,
2013-04-07 07:13:00,60.5,56.9,29.91,SSE,158,9.0,16.0,88,0.00,,---,0.00,VWS V14.00,2013-04-07 13:13:00,
2013-04-07 07:18:00,60.5,56.9,29.91,SE,146,12.0,18.0,88,0.00,,---,0.00,VWS V14.00,2013-04-07 13:18:00,
2013-04-07 07:23:00,60.6,57.0,29.92,South,184,10.0,18.0,88,0.00,,---,0.00,VWS V14.00,2013-04-07 13:23:00,
2013-04-07 07:28:00,60.7,57.1,29.92,SSE,166,12.0,18.0,88,0.00,,---,0.00,VWS V14.00,2013-04-07 13:28:00,
2013-04-07 07:33:00,60.7,57.1,29.92,SSE,153,18.0,18.0,88,0.00,,---,0.00,VWS V14.00,2013-04-07 13:33:00,
2013-04-07 07:38:00,60.9,57.3,29.92,South,180,11.0,18.0,88,0.00,,---,0.00,VWS V14.00,2013-04-07 13:38:00,
2013-04-07 07:43:00,61.0,57.4,29.92,South,171,13.0,19.0,88,0.00,,---,0.00,VWS V14.00,2013-04-07 13:43:00,
2013-04-07 07:48:00,61.1,57.5,29.92,SE,142,15.0,19.0,88,0.00,,---,0.00,VWS V14.00,2013-04-07 13:48:00,
2013-04-07 07:53:00,61.2,57.6,29.92,SSE,159,10.0,19.0,88,0.00,,---,0.00,VWS V14.00,2013-04-07 13:53:00,
2013-04-07 07:58:00,61.3,57.7,29.91,South,171,10.0,19.0,88,0.00,,---,0.00,VWS V14.00,2013-04-07 13:58:00,
2013-04-07 08:03:00,61.5,57.6,29.91,SSE,153,17.0,17.0,87,0.00,,---,0.00,VWS V14.00,2013-04-07 14:03:00,
2013-04-07 08:08:00,61.6,57.7,29.92,South,175,9.0,17.0,87,0.00,,---,0.00,VWS V14.00,2013-04-07 14:08:00,
2013-04-07 08:13:00,61.8,57.9,29.92,SSE,161,10.0,17.0,87,0.00,,---,0.00,VWS V14.00,2013-04-07 14:13:00,
2013-04-07 08:18:00,62.0,58.1,29.92,SSE,159,7.0,17.0,87,0.00,,---,0.00,VWS V14.00,2013-04-07 14:18:00,
2013-04-07 08:23:00,62.2,58.3,29.92,SSE,167,11.0,17.0,87,0.00,,---,0.00,VWS V14.00,2013-04-07 14:23:00,
2013-04-07 08:28:00,62.2,58.0,29.92,South,183,13.0,19.0,86,0.00,,---,0.00,VWS V14.00,2013-04-07 14:28:00,
2013-04-07 08:33:00,62.3,58.1,29.91,South,185,6.0,14.0,86,0.00,,---,0.00,VWS V14.00,2013-04-07 14:33:00,
2013-04-07 08:38:00,62.6,58.4,29.92,SSE,165,7.0,14.0,86,0.00,,---,0.00,VWS V14.00,2013-04-07 14:38:00,
2013-04-07 08:43:00,62.7,58.1,29.92,South,181,10.0,20.0,85,0.00,,---,0.00,VWS V14.00,2013-04-07 14:43:00,
2013-04-07 08:48:00,62.9,58.7,29.92,SSE,162,14.0,20.0,86,0.00,,---,0.00,VWS V14.00,2013-04-07 14:48:00,
2013-04-07 08:53:00,63.1,58.5,29.92,SSE,163,14.0,20.0,85,0.00,,---,0.00,VWS V14.00,2013-04-07 14:53:00,
2013-04-07 08:58:00,63.2,58.6,29.92,SSE,167,14.0,20.0,85,0.00,,---,0.00,VWS V14.00,2013-04-07 14:58:00,
2013-04-07 09:03:00,63.4,58.8,29.92,SSE,162,15.0,17.0,85,0.00,,---,0.00,VWS V14.00,2013-04-07 15:03:00,
2013-04-07 09:08:00,63.5,58.6,29.92,SSE,163,15.0,18.0,84,0.00,,---,0.00,VWS V14.00,2013-04-07 15:08:00,
2013-04-07 09:13:00,63.7,58.8,29.91,South,171,10.0,18.0,84,0.00,,---,0.00,VWS V14.00,2013-04-07 15:13:00,
2013-04-07 09:18:00,64.0,58.7,29.92,SSE,165,14.0,20.0,83,0.00,,---,0.00,VWS V14.00,2013-04-07 15:18:00,
2013-04-07 09:23:00,64.3,59.0,29.92,SSE,165,14.0,23.0,83,0.00,,---,0.00,VWS V14.00,2013-04-07 15:23:00,
2013-04-07 09:28:00,64.7,59.4,29.92,SSE,167,13.0,23.0,83,0.00,,---,0.00,VWS V14.00,2013-04-07 15:28:00,
2013-04-07 09:33:00,65.0,59.4,29.92,SE,140,16.0,19.0,82,0.00,,---,0.00,VWS V14.00,2013-04-07 15:33:00,
2013-04-07 09:38:00,65.3,59.7,29.92,SSW,198,23.0,26.0,82,0.00,,---,0.00,VWS V14.00,2013-04-07 15:38:00,
2013-04-07 09:43:00,65.5,59.5,29.92,South,185,15.0,26.0,81,0.00,,---,0.00,VWS V14.00,2013-04-07 15:43:00,
2013-04-07 09:48:00,65.9,59.6,29.92,South,180,12.0,26.0,80,0.00,,---,0.00,VWS V14.00,2013-04-07 15:48:00,
2013-04-07 09:53:00,65.9,59.6,29.91,SSE,163,11.0,26.0,80,0.00,,---,0.00,VWS V14.00,2013-04-07 15:53:00,
2013-04-07 09:58:00,65.9,59.9,29.91,SSE,167,14.0,26.0,81,0.00,,---,0.00,VWS V14.00,2013-04-07 15:58:00,
2013-04-07 10:03:00,66.1,59.8,29.91,SSE,163,13.0,19.0,80,0.00,,---,0.00,VWS V14.00,2013-04-07 16:03:00,
2013-04-07 10:08:00,66.3,60.0,29.90,SSE,167,19.0,20.0,80,0.00,,---,0.00,VWS V14.00,2013-04-07 16:08:00,
2013-04-07 10:13:00,66.2,59.9,29.90,SSE,151,14.0,22.0,80,0.00,,---,0.00,VWS V14.00,2013-04-07 16:13:00,
2013-04-07 10:18:00,66.4,60.0,29.90,South,177,18.0,24.0,80,0.00,,---,0.00,VWS V14.00,2013-04-07 16:18:00,
2013-04-07 10:23:00,66.3,60.0,29.91,South,169,13.0,26.0,80,0.00,,---,0.00,VWS V14.00,2013-04-07 16:23:00,
2013-04-07 10:28:00,66.2,59.9,29.91,South,173,14.0,26.0,80,0.00,,---,0.00,VWS V14.00,2013-04-07 16:28:00,
2013-04-07 10:33:00,66.3,60.0,29.91,South,190,15.0,28.0,80,0.00,,---,0.00,VWS V14.00,2013-04-07 16:33:00,
2013-04-07 10:38:00,66.5,60.2,29.91,SSE,153,12.0,28.0,80,0.00,,---,0.00,VWS V14.00,2013-04-07 16:38:00,
2013-04-07 10:43:00,66.6,59.9,29.91,SSE,161,12.0,28.0,79,0.00,,---,0.00,VWS V14.00,2013-04-07 16:43:00,
2013-04-07 10:48:00,66.5,60.2,29.91,South,182,10.0,28.0,80,0.00,,---,0.00,VWS V14.00,2013-04-07 16:48:00,
2013-04-07 10:53:00,66.4,60.0,29.91,SSW,192,20.0,28.0,80,0.00,,---,0.00,VWS V14.00,2013-04-07 16:53:00,
2013-04-07 10:58:00,66.3,60.0,29.91,SSE,159,14.0,28.0,80,0.00,,---,0.00,VWS V14.00,2013-04-07 16:58:00,
2013-04-07 11:03:00,66.4,60.0,29.90,South,169,20.0,24.0,80,0.00,,---,0.00,VWS V14.00,2013-04-07 17:03:00,
2013-04-07 11:08:00,66.5,60.2,29.90,South,177,18.0,24.0,80,0.00,,---,0.00,VWS V14.00,2013-04-07 17:08:00,
2013-04-07 11:13:00,66.7,60.3,29.90,South,171,18.0,24.0,80,0.00,,---,0.00,VWS V14.00,2013-04-07 17:13:00,
2013-04-07 11:18:00,66.6,60.2,29.90,SSE,165,11.0,24.0,80,0.00,,---,0.00,VWS V14.00,2013-04-07 17:18:00,
2013-04-07 11:23:00,66.7,60.3,29.90,SSE,168,12.0,25.0,80,0.00,,---,0.00,VWS V14.00,2013-04-07 17:23:00,
2013-04-07 11:28:00,66.8,60.4,29.89,South,178,13.0,25.0,80,0.00,,---,0.00,VWS V14.00,2013-04-07 17:28:00,
2013-04-07 11:33:00,67.2,60.8,29.89,SE,140,16.0,16.0,80,0.00,,---,0.00,VWS V14.00,2013-04-07 17:33:00,
2013-04-07 11:38:00,67.4,60.7,29.88,South,174,12.0,18.0,79,0.00,,---,0.00,VWS V14.00,2013-04-07 17:38:00,
2013-04-07 11:43:00,67.5,60.4,29.88,South,188,15.0,26.0,78,0.00,,---,0.00,VWS V14.00,2013-04-07 17:43:00,
2013-04-07 11:48:00,67.9,60.4,29.88,SSW,193,13.0,26.0,77,0.00,,---,0.00,VWS V14.00,2013-04-07 17:48:00,
2013-04-07 11:53:00,68.3,60.5,29.88,South,186,19.0,26.0,76,0.00,,---,0.00,VWS V14.00,2013-04-07 17:53:00,
2013-04-07 11:59:00,68.5,60.3,29.87,South,179,14.0,26.0,75,0.00,,---,0.00,VWS V14.00,2013-04-07 17:59:00,
2013-04-07 12:04:00,68.9,60.7,29.87,SSE,166,17.0,22.0,75,0.00,,---,0.00,VWS V14.00,2013-04-07 18:04:00,
2013-04-07 12:09:00,69.2,61.0,29.86,SSE,167,16.0,23.0,75,0.00,,---,0.00,VWS V14.00,2013-04-07 18:09:00,
2013-04-07 12:14:00,69.1,60.8,29.86,South,184,14.0,23.0,75,0.00,,---,0.00,VWS V14.00,2013-04-07 18:14:00,
2013-04-07 12:19:00,69.1,60.5,29.86,SSE,153,17.0,24.0,74,0.00,,---,0.00,VWS V14.00,2013-04-07 18:19:00,
2013-04-07 12:24:00,69.1,60.8,29.85,SSE,165,16.0,25.0,75,0.00,,---,0.00,VWS V14.00,2013-04-07 18:24:00,
2013-04-07 12:29:00,69.1,60.5,29.85,South,178,18.0,25.0,74,0.00,,---,0.00,VWS V14.00,2013-04-07 18:29:00,
2013-04-07 12:34:00,69.2,61.0,29.85,South,175,15.0,23.0,75,0.00,,---,0.00,VWS V14.00,2013-04-07 18:34:00,
2013-04-07 12:39:00,69.5,60.5,29.85,South,173,21.0,25.0,73,0.00,,---,0.00,VWS V14.00,2013-04-07 18:39:00,
2013-04-07 12:44:00,69.8,60.8,29.84,SSE,155,10.0,25.0,73,0.00,,---,0.00,VWS V14.00,2013-04-07 18:44:00,
2013-04-07 12:49:00,69.9,60.9,29.84,South,183,17.0,32.0,73,0.00,,---,0.00,VWS V14.00,2013-04-07 18:49:00,
2013-04-07 12:54:00,70.0,61.0,29.84,South,170,11.0,32.0,73,0.00,,---,0.00,VWS V14.00,2013-04-07 18:54:00,
2013-04-07 12:59:00,70.1,60.7,29.84,SSE,154,18.0,32.0,72,0.00,,---,0.00,VWS V14.00,2013-04-07 18:59:00,
2013-04-07 13:04:00,70.3,60.9,29.84,SSE,167,12.0,23.0,72,0.00,,---,0.00,VWS V14.00,2013-04-07 19:04:00,
2013-04-07 13:09:00,70.4,61.0,29.83,South,173,16.0,23.0,72,0.00,,---,0.00,VWS V14.00,2013-04-07 19:09:00,
2013-04-07 13:14:00,70.2,60.8,29.84,SSE,159,13.0,26.0,72,0.00,,---,0.00,VWS V14.00,2013-04-07 19:14:00,
2013-04-07 13:19:00,70.3,60.9,29.83,South,172,15.0,26.0,72,0.00,,---,0.00,VWS V14.00,2013-04-07 19:19:00,
2013-04-07 13:24:00,70.4,61.0,29.83,SSE,158,22.0,26.0,72,0.00,,---,0.00,VWS V14.00,2013-04-07 19:24:00,
2013-04-07 13:30:00,70.8,61.3,29.83,SSE,151,16.0,26.0,72,0.00,,---,0.00,VWS V14.00,2013-04-07 19:30:00,
2013-04-07 13:35:00,70.8,60.9,29.83,North,360,15.0,27.0,71,0.00,,---,0.00,VWS V14.00,2013-04-07 19:35:00,
2013-04-07 13:40:00,70.9,61.0,29.82,SSW,200,18.0,27.0,71,0.00,,---,0.00,VWS V14.00,2013-04-07 19:40:00,
2013-04-07 13:45:00,70.4,61.0,29.82,South,171,20.0,30.0,72,0.00,,---,0.00,VWS V14.00,2013-04-07 19:45:00,
2013-04-07 13:50:00,70.3,60.9,29.82,SSE,156,15.0,30.0,72,0.00,,---,0.00,VWS V14.00,2013-04-07 19:50:00,
2013-04-07 13:55:00,70.4,61.0,29.82,South,188,24.0,30.0,72,0.00,,---,0.00,VWS V14.00,2013-04-07 19:55:00,
2013-04-07 14:00:00,70.4,61.0,29.82,SSW,199,19.0,30.0,72,0.00,,---,0.00,VWS V14.00,2013-04-07 20:00:00,
2013-04-07 14:05:00,70.2,60.8,29.81,SSW,202,18.0,31.0,72,0.00,,---,0.00,VWS V14.00,2013-04-07 20:05:00,
2013-04-07 14:10:00,70.5,61.4,29.81,SSE,163,20.0,31.0,73,0.00,,---,0.00,VWS V14.00,2013-04-07 20:10:00,
2013-04-07 14:15:00,70.6,61.1,29.81,SSE,161,14.0,31.0,72,0.00,,---,0.00,VWS V14.00,2013-04-07 20:15:00,
2013-04-07 14:20:00,70.6,61.1,29.81,SSE,166,20.0,31.0,72,0.00,,---,0.00,VWS V14.00,2013-04-07 20:20:00,
2013-04-07 14:25:00,70.4,61.0,29.81,South,184,16.0,31.0,72,0.00,,---,0.00,VWS V14.00,2013-04-07 20:25:00,
2013-04-07 14:30:00,70.4,61.0,29.81,South,179,21.0,31.0,72,0.00,,---,0.00,VWS V14.00,2013-04-07 20:30:00,
2013-04-07 14:35:00,70.5,61.0,29.81,SSE,159,18.0,30.0,72,0.00,,---,0.00,VWS V14.00,2013-04-07 20:35:00,
2013-04-07 14:40:00,70.4,61.0,29.81,South,184,11.0,30.0,72,0.00,,---,0.00,VWS V14.00,2013-04-07 20:40:00,
2013-04-07 14:45:00,70.4,61.0,29.81,South,173,15.0,30.0,72,0.00,,---,0.00,VWS V14.00,2013-04-07 20:45:00,
2013-04-07 14:50:00,70.3,60.9,29.80,South,179,12.0,30.0,72,0.00,,---,0.00,VWS V14.00,2013-04-07 20:50:00,
2013-04-07 14:55:00,70.5,61.0,29.80,South,178,13.0,30.0,72,0.00,,---,0.00,VWS V14.00,2013-04-07 20:55:00,
2013-04-07 15:00:00,70.5,61.0,29.80,SE,144,14.0,30.0,72,0.00,,---,0.00,VWS V14.00,2013-04-07 21:00:00,
2013-04-07 15:05:00,70.5,61.4,29.80,SSE,163,19.0,25.0,73,0.00,,---,0.00,VWS V14.00,2013-04-07 21:05:00,
2013-04-07 15:10:00,70.4,61.3,29.80,South,191,15.0,25.0,73,0.00,,---,0.00,VWS V14.00,2013-04-07 21:10:00,
2013-04-07 15:15:00,70.6,61.5,29.80,South,178,16.0,25.0,73,0.00,,---,0.00,VWS V14.00,2013-04-07 21:15:00,
2013-04-07 15:20:00,70.5,61.0,29.80,SSE,149,16.0,27.0,72,0.00,,---,0.00,VWS V14.00,2013-04-07 21:20:00,
2013-04-07 15:25:00,70.8,61.7,29.79,South,175,19.0,27.0,73,0.00,,---,0.00,VWS V14.00,2013-04-07 21:25:00,
2013-04-07 15:30:00,71.0,61.5,29.79,SSE,150,17.0,27.0,72,0.00,,---,0.00,VWS V14.00,2013-04-07 21:30:00,
2013-04-07 15:35:00,71.1,61.6,29.79,SSE,167,16.0,20.0,72,0.00,,---,0.00,VWS V14.00,2013-04-07 21:35:00,
2013-04-07 15:40:00,71.0,61.5,29.79,South,170,18.0,26.0,72,0.00,,---,0.00,VWS V14.00,2013-04-07 21:40:00,
2013-04-07 15:45:00,71.1,61.6,29.78,South,178,18.0,27.0,72,0.00,,---,0.00,VWS V14.00,2013-04-07 21:45:00,
2013-04-07 15:50:00,71.1,61.6,29.78,SE,141,15.0,27.0,72,0.00,,---,0.00,VWS V14.00,2013-04-07 21:50:00,
2013-04-07 15:55:00,71.1,61.2,29.78,South,169,10.0,27.0,71,0.00,,---,0.00,VWS V14.00,2013-04-07 21:55:00,
2013-04-07 16:00:00,71.1,61.6,29.78,SSE,156,10.0,27.0,72,0.00,,---,0.00,VWS V14.00,2013-04-07 22:00:00,
2013-04-07 16:05:00,71.2,61.7,29.77,SSE,168,17.0,24.0,72,0.00,,---,0.00,VWS V14.00,2013-04-07 22:05:00,
2013-04-07 16:10:00,71.3,61.8,29.77,South,173,17.0,24.0,72,0.00,,---,0.00,VWS V14.00,2013-04-07 22:10:00,
2013-04-07 16:15:00,71.3,61.8,29.77,South,180,14.0,24.0,72,0.00,,---,0.00,VWS V14.00,2013-04-07 22:15:00,
2013-04-07 16:20:00,71.3,61.8,29.77,SSE,153,13.0,24.0,72,0.00,,---,0.00,VWS V14.00,2013-04-07 22:20:00,
2013-04-07 16:25:00,71.1,61.6,29.77,SSE,148,18.0,24.0,72,0.00,,---,0.00,VWS V14.00,2013-04-07 22:25:00,
2013-04-07 16:30:00,71.1,62.0,29.77,SSE,165,11.0,24.0,73,0.00,,---,0.00,VWS V14.00,2013-04-07 22:30:00,
2013-04-07 16:35:00,71.1,62.0,29.77,South,169,15.0,21.0,73,0.00,,---,0.00,VWS V14.00,2013-04-07 22:35:00,
2013-04-07 16:40:00,71.2,61.7,29.77,SE,139,14.0,21.0,72,0.00,,---,0.00,VWS V14.00,2013-04-07 22:40:00,
2013-04-07 16:45:00,71.2,62.1,29.77,SE,138,18.0,21.0,73,0.00,,---,0.00,VWS V14.00,2013-04-07 22:45:00,
2013-04-07 16:51:00,71.3,61.8,29.77,SE,144,15.0,21.0,72,0.00,,---,0.00,VWS V14.00,2013-04-07 22:51:00,
2013-04-07 16:56:00,71.3,61.8,29.77,SE,144,15.0,21.0,72,0.00,,---,0.00,VWS V14.00,2013-04-07 22:56:00,
2013-04-07 17:01:00,71.3,61.8,29.77,SE,146,16.0,21.0,72,0.00,,---,0.00,VWS V14.00,2013-04-07 23:01:00,
2013-04-07 17:06:00,71.4,61.9,29.77,SE,142,18.0,18.0,72,0.00,,---,0.00,VWS V14.00,2013-04-07 23:06:00,
2013-04-07 17:11:00,71.4,61.9,29.77,SE,145,17.0,20.0,72,0.00,,---,0.00,VWS V14.00,2013-04-07 23:11:00,
2013-04-07 17:16:00,71.5,62.0,29.77,SSE,165,12.0,21.0,72,0.00,,---,0.00,VWS V14.00,2013-04-07 23:16:00,
2013-04-07 17:21:00,71.5,62.0,29.77,South,172,16.0,21.0,72,0.00,,---,0.00,VWS V14.00,2013-04-07 23:21:00,
2013-04-07 17:26:00,71.7,62.2,29.76,SSE,153,18.0,21.0,72,0.00,,---,0.00,VWS V14.00,2013-04-07 23:26:00,
2013-04-07 17:31:00,71.7,62.2,29.77,SSE,151,15.0,17.0,72,0.00,,---,0.00,VWS V14.00,2013-04-07 23:31:00,
2013-04-07 17:36:00,71.8,62.3,29.76,SE,146,18.0,20.0,72,0.00,,---,0.00,VWS V14.00,2013-04-07 23:36:00,
2013-04-07 17:41:00,71.9,62.4,29.77,SSE,151,13.0,20.0,72,0.00,,---,0.00,VWS V14.00,2013-04-07 23:41:00,
2013-04-07 17:46:00,71.8,62.3,29.76,SSE,159,15.0,20.0,72,0.00,,---,0.00,VWS V14.00,2013-04-07 23:46:00,
2013-04-07 17:52:00,71.9,62.0,29.76,SSE,150,13.0,20.0,71,0.00,,---,0.00,VWS V14.00,2013-04-07 23:52:00,
2013-04-07 17:57:00,71.9,62.0,29.76,South,173,11.0,20.0,71,0.00,,---,0.00,VWS V14.00,2013-04-07 23:57:00,
2013-04-07 18:02:00,71.8,61.9,29.77,SSE,154,10.0,16.0,71,0.00,,---,0.00,VWS V14.00,2013-04-08 00:02:00,
2013-04-07 18:07:00,71.7,61.8,29.77,SSE,161,12.0,17.0,71,0.00,,---,0.00,VWS V14.00,2013-04-08 00:07:00,
2013-04-07 18:12:00,71.7,61.8,29.77,SSE,150,14.0,17.0,71,0.00,,---,0.00,VWS V14.00,2013-04-08 00:12:00,
2013-04-07 18:17:00,71.6,62.1,29.77,SSE,155,7.0,18.0,72,0.00,,---,0.00,VWS V14.00,2013-04-08 00:17:00,
2013-04-07 18:22:00,71.5,62.0,29.76,SSE,161,16.0,18.0,72,0.00,,---,0.00,VWS V14.00,2013-04-08 00:22:00,
2013-04-07 18:27:00,71.4,61.9,29.76,SSE,147,10.0,18.0,72,0.00,,---,0.00,VWS V14.00,2013-04-08 00:27:00,
2013-04-07 18:32:00,71.2,61.7,29.76,South,169,17.0,17.0,72,0.00,,---,0.00,VWS V14.00,2013-04-08 00:32:00,
2013-04-07 18:37:00,71.2,61.7,29.76,SSE,155,12.0,21.0,72,0.00,,---,0.00,VWS V14.00,2013-04-08 00:37:00,
2013-04-07 18:42:00,71.1,61.6,29.76,SSE,167,12.0,21.0,72,0.00,,---,0.00,VWS V14.00,2013-04-08 00:42:00,
2013-04-07 18:47:00,71.1,61.6,29.76,SSE,161,14.0,21.0,72,0.00,,---,0.00,VWS V14.00,2013-04-08 00:47:00,
2013-04-07 18:52:00,71.0,61.5,29.76,SE,146,10.0,21.0,72,0.00,,---,0.00,VWS V14.00,2013-04-08 00:52:00,
2013-04-07 18:57:00,70.9,61.4,29.76,SSE,153,13.0,21.0,72,0.00,,---,0.00,VWS V14.00,2013-04-08 00:57:00,
2013-04-07 19:02:00,70.7,61.6,29.76,SSE,151,9.0,12.0,73,0.00,,---,0.00,VWS V14.00,2013-04-08 01:02:00,
2013-04-07 19:07:00,70.4,61.3,29.76,SE,138,11.0,14.0,73,0.00,,---,0.00,VWS V14.00,2013-04-08 01:07:00,
2013-04-07 19:12:00,70.3,61.6,29.77,SE,141,9.0,14.0,74,0.00,,---,0.00,VWS V14.00,2013-04-08 01:12:00,
2013-04-07 19:17:00,70.2,61.5,29.77,SSE,149,10.0,14.0,74,0.00,,---,0.00,VWS V14.00,2013-04-08 01:17:00,
2013-04-07 19:22:00,70.1,61.8,29.77,SE,134,12.0,16.0,75,0.00,,---,0.00,VWS V14.00,2013-04-08 01:22:00,
2013-04-07 19:27:00,70.0,61.7,29.77,SSE,149,14.0,16.0,75,0.00,,---,0.00,VWS V14.00,2013-04-08 01:27:00,
2013-04-07 19:32:00,70.0,61.7,29.76,SE,138,13.0,17.0,75,0.00,,---,0.00,VWS V14.00,2013-04-08 01:32:00,
2013-04-07 19:37:00,69.8,61.5,29.77,SE,141,12.0,17.0,75,0.00,,---,0.00,VWS V14.00,2013-04-08 01:37:00,
2013-04-07 19:42:00,69.7,61.4,29.76,SE,146,16.0,18.0,75,0.00,,---,0.00,VWS V14.00,2013-04-08 01:42:00,
2013-04-07 19:47:00,69.5,61.2,29.76,SSE,148,13.0,18.0,75,0.00,,---,0.00,VWS V14.00,2013-04-08 01:47:00,
2013-04-07 19:53:00,69.4,61.5,29.76,SE,141,10.0,18.0,76,0.00,,---,0.00,VWS V14.00,2013-04-08 01:53:00,
2013-04-07 19:58:00,69.3,61.4,29.76,SE,144,14.0,20.0,76,0.00,,---,0.00,VWS V14.00,2013-04-08 01:58:00,
2013-04-07 20:03:00,69.2,61.3,29.76,SE,133,15.0,19.0,76,0.00,,---,0.00,VWS V14.00,2013-04-08 02:03:00,
2013-04-07 20:08:00,69.0,61.5,29.76,SE,134,13.0,19.0,77,0.00,,---,0.00,VWS V14.00,2013-04-08 02:08:00,
2013-04-07 20:13:00,68.8,61.3,29.76,SSE,150,12.0,19.0,77,0.00,,---,0.00,VWS V14.00,2013-04-08 02:13:00,
2013-04-07 20:18:00,68.6,61.1,29.76,SE,138,12.0,19.0,77,0.00,,---,0.00,VWS V14.00,2013-04-08 02:18:00,
2013-04-07 20:23:00,68.5,61.4,29.76,SSE,150,10.0,21.0,78,0.00,,---,0.00,VWS V14.00,2013-04-08 02:23:00,
2013-04-07 20:28:00,68.5,61.4,29.76,SE,128,12.0,21.0,78,0.00,,---,0.00,VWS V14.00,2013-04-08 02:28:00,
2013-04-07 20:33:00,68.5,61.4,29.76,ESE,123,12.0,18.0,78,0.00,,---,0.00,VWS V14.00,2013-04-08 02:33:00,
2013-04-07 20:38:00,68.4,61.3,29.76,SE,126,15.0,18.0,78,0.00,,---,0.00,VWS V14.00,2013-04-08 02:38:00,
2013-04-07 20:43:00,68.4,61.3,29.76,SE,124,12.0,21.0,78,0.00,,---,0.00,VWS V14.00,2013-04-08 02:43:00,
2013-04-07 20:48:00,68.4,61.3,29.76,ESE,115,11.0,21.0,78,0.00,,---,0.00,VWS V14.00,2013-04-08 02:48:00,
2013-04-07 20:53:00,68.3,61.2,29.76,SE,132,13.0,21.0,78,0.00,,---,0.00,VWS V14.00,2013-04-08 02:53:00,
2013-04-07 20:58:00,68.3,61.2,29.76,SE,130,22.0,22.0,78,0.00,,---,0.00,VWS V14.00,2013-04-08 02:58:00,
2013-04-07 21:03:00,68.3,61.2,29.76,SE,136,12.0,17.0,78,0.00,,---,0.00,VWS V14.00,2013-04-08 03:03:00,
2013-04-07 21:08:00,68.3,61.2,29.76,SE,135,14.0,21.0,78,0.00,,---,0.00,VWS V14.00,2013-04-08 03:08:00,
2013-04-07 21:13:00,68.2,61.1,29.76,SE,135,11.0,21.0,78,0.00,,---,0.00,VWS V14.00,2013-04-08 03:13:00,
2013-04-07 21:18:00,68.1,61.0,29.76,SE,146,14.0,21.0,78,0.00,,---,0.00,VWS V14.00,2013-04-08 03:18:00,
2013-04-07 21:23:00,68.2,61.1,29.76,SSE,157,13.0,24.0,78,0.00,,---,0.00,VWS V14.00,2013-04-08 03:23:00,
2013-04-07 21:28:00,68.1,61.0,29.76,SE,141,21.0,24.0,78,0.00,,---,0.00,VWS V14.00,2013-04-08 03:28:00,
2013-04-07 21:33:00,68.2,60.7,29.76,SE,138,16.0,23.0,77,0.00,,---,0.00,VWS V14.00,2013-04-08 03:33:00,
2013-04-07 21:38:00,68.1,60.6,29.76,SE,132,14.0,24.0,77,0.00,,---,0.00,VWS V14.00,2013-04-08 03:38:00,
2013-04-07 21:43:00,68.1,60.6,29.76,SE,134,14.0,24.0,77,0.00,,---,0.00,VWS V14.00,2013-04-08 03:43:00,
2013-04-07 21:48:00,68.1,60.6,29.76,SE,133,17.0,26.0,77,0.00,,---,0.00,VWS V14.00,2013-04-08 03:48:00,
2013-04-07 21:53:00,68.1,60.6,29.75,SSE,153,20.0,26.0,77,0.00,,---,0.00,VWS V14.00,2013-04-08 03:53:00,
2013-04-07 21:58:00,68.1,60.6,29.76,SE,146,17.0,26.0,77,0.00,,---,0.00,VWS V14.00,2013-04-08 03:58:00,
2013-04-07 22:00:00,68.1,60.6,29.76,SSE,166,15.0,26.0,77,0.00,,---,0.00,VWS V14.00,2013-04-08 04:00:00,
2013-04-07 22:01:00,68.0,60.5,29.76,SE,145,18.0,28.0,77,0.00,,---,0.00,VWS V14.00,2013-04-08 04:01:00,
2013-04-07 22:06:00,68.0,60.5,29.75,SE,144,31.0,31.0,77,0.00,,---,0.00,VWS V14.00,2013-04-08 04:06:00,
2013-04-07 22:11:00,68.0,60.5,29.75,SSE,155,17.0,31.0,77,0.00,,---,0.00,VWS V14.00,2013-04-08 04:11:00,
2013-04-07 22:16:00,68.0,60.5,29.75,SE,142,19.0,31.0,77,0.00,,---,0.00,VWS V14.00,2013-04-08 04:16:00,
2013-04-07 22:21:00,67.8,60.7,29.76,SE,143,27.0,31.0,78,0.00,,---,0.00,VWS V14.00,2013-04-08 04:21:00,
2013-04-07 22:26:00,67.9,60.8,29.75,South,169,16.0,31.0,78,0.00,,---,0.00,VWS V14.00,2013-04-08 04:26:00,
2013-04-07 22:31:00,67.9,60.8,29.76,SSE,163,12.0,17.0,78,0.00,,---,0.00,VWS V14.00,2013-04-08 04:31:00,
2013-04-07 22:36:00,67.9,60.8,29.76,SSE,153,18.0,26.0,78,0.00,,---,0.00,VWS V14.00,2013-04-08 04:36:00,
2013-04-07 22:41:00,67.8,60.7,29.76,SSE,155,19.0,27.0,78,0.00,,---,0.00,VWS V14.00,2013-04-08 04:41:00,
2013-04-07 22:46:00,67.8,60.7,29.76,SE,143,19.0,28.0,78,0.00,,---,0.00,VWS V14.00,2013-04-08 04:46:00,
2013-04-07 22:52:00,67.7,60.6,29.76,SSE,156,16.0,28.0,78,0.00,,---,0.00,VWS V14.00,2013-04-08 04:52:00,
2013-04-07 22:57:00,67.6,60.5,29.75,South,175,10.0,28.0,78,0.00,,---,0.00,VWS V14.00,2013-04-08 04:57:00,
2013-04-07 23:00:00,67.4,60.7,29.76,SSE,168,16.0,28.0,79,0.00,,---,0.00,VWS V14.00,2013-04-08 05:00:00,
2013-04-07 23:02:00,67.4,60.7,29.76,SSE,163,16.0,19.0,79,0.00,,---,0.00,VWS V14.00,2013-04-08 05:02:00,
2013-04-07 23:07:00,67.3,60.6,29.76,South,169,10.0,24.0,79,0.00,,---,0.00,VWS V14.00,2013-04-08 05:07:00,
2013-04-07 23:12:00,67.1,60.4,29.76,SSE,168,15.0,24.0,79,0.00,,---,0.00,VWS V14.00,2013-04-08 05:12:00,
2013-04-07 23:17:00,67.0,60.6,29.76,South,182,17.0,24.0,80,0.00,,---,0.00,VWS V14.00,2013-04-08 05:17:00,
2013-04-07 23:22:00,66.8,60.4,29.76,SSE,155,17.0,24.0,80,0.00,,---,0.00,VWS V14.00,2013-04-08 05:22:00,
2013-04-07 23:27:00,66.8,60.4,29.76,South,185,16.0,24.0,80,0.00,,---,0.00,VWS V14.00,2013-04-08 05:27:00,
2013-04-07 23:30:00,66.8,60.4,29.76,South,191,17.0,24.0,80,0.00,,---,0.00,VWS V14.00,2013-04-08 05:30:00,
2013-04-07 23:32:00,66.8,60.4,29.76,South,180,14.0,24.0,80,0.00,,---,0.00,VWS V14.00,2013-04-08 05:32:00,
2013-04-07 23:37:00,66.8,60.4,29.76,SSE,163,13.0,24.0,80,0.00,,---,0.00,VWS V14.00,2013-04-08 05:37:00,
2013-04-07 23:42:00,66.8,60.4,29.76,SSW,195,16.0,24.0,80,0.00,,---,0.00,VWS V14.00,2013-04-08 05:42:00,
2013-04-07 23:47:00,66.9,60.5,29.76,South,189,18.0,24.0,80,0.00,,---,0.00,VWS V14.00,2013-04-08 05:47:00,
2013-04-07 23:52:00,66.9,60.2,29.76,SSW,192,13.0,24.0,79,0.00,,---,0.00,VWS V14.00,2013-04-08 05:52:00,
2013-04-07 23:57:00,67.0,60.3,29.76,South,178,15.0,25.0,79,0.00,,---,0.00,VWS V14.00,2013-04-08 05:57:00,